Wind_Speed
27 26 24 23 21 19 18 16 15 14 13 11 11 9 8 7 7 6 6 7 8 9 11 12 13 15 16 17 18 19 20 20 22 24 27 30 33 35 38 41 43 46 48 48 48 46 43 40 38 36 35 33 30 26 21 15 12 11 12 12 12 12 11 11 11 11 10 9 7 6 7 10 11 9 8 9 10 9 8 7 6 6 6 4 3 4 5 6
30 28 26 25 23 21 20 18 17 16 14 14 12 11 10 8 8 7 7 7 8 9 11 12 13 14 15 17 18 19 19 20 21 23 25 28 31 33 36 39 42 45 47 48 49 48 45 42 39 37 35 33 31 28 24 19 13 11 12 12 11 9 9 9 9 9 9 9 9 7 7 8 10 10 9 10 10 10 10 8 7 8 9 7 6 6 6 6
31 30 28 27 25 23 22 20 19 18 16 15 15 13 12 10 9 9 8 8 9 10 11 12 13 14 15 16 17 18 19 19 20 21 24 27 29 32 34 37 40 43 46 47 49 49 47 44 40 38 36 34 32 29 26 22 18 14 11 9 8 8 7 7 8 7 7 7 8 8 8 9 10 9 8 10 11 11 11 11 10 11 12 10 9 9 8 8
34 32 30 29 28 26 24 22 21 20 18 17 17 15 13 11 11 10 9 9 10 11 12 12 13 14 14 16 16 18 19 19 19 20 22 25 27 30 33 35 38 41 44 46 48 49 48 46 42 39 37 35 34 31 28 26 23 18 13 10 8 8 7 7 7 7 6 6 6 7 8 9 10 10 8 8 11 11 11 11 11 12 13 12 12 12 13 12
36 34 32 31 30 28 26 24 23 21 20 19 19 17 15 14 12 12 11 10 11 12 12 13 13 14 15 15 16 18 19 19 19 19 21 23 26 29 31 34 37 40 42 45 47 48 49 47 45 41 38 36 35 32 30 28 25 21 17 14 11 9 8 6 6 6 7 6 5 6 7 8 8 9 8 7 7 9 11 11 10 11 12 11 11 13 15 14
38 36 35 33 32 30 28 26 24 23 22 21 20 19 17 16 14 14 13 12 12 13 13 14 14 15 15 16 17 18 20 20 19 19 20 22 24 27 30 32 35 38 41 43 46 48 49 48 46 43 39 37 36 34 32 30 27 23 19 16 13 11 9 6 5 6 8 8 6 6 6 6 5 7 8 7 5 6 10 11 10 11 12 10 10 13 16 15
41 38 37 35 34 32 30 28 26 25 24 23 22 21 19 18 16 15 14 13 13 14 14 15 15 15 16 17 17 18 20 21 20 19 19 21 23 26 29 31 34 37 40 42 45 47 49 49 47 44 41 39 37 35 33 31 28 24 21 18 15 12 11 8 6 6 7 8 8 7 6 6 5 5 7 7 5 5 8 10 10 12 13 13 13 15 18 18
43 41 39 37 36 34 32 30 28 27 25 24 24 23 21 20 18 17 16 15 15 15 15 16 16 16 16 17 18 18 20 22 21 19 19 20 22 25 28 30 33 36 38 41 44 46 48 49 49 46 43 40 38 36 34 32 29 25 22 19 16 14 12 10 7 7 8 9 8 7 7 6 6 6 6 6 5 6 9 9 11 13 14 14 16 18 20 21
44 43 41 39 38 36 34 32 30 29 27 26 25 24 23 21 20 18 17 17 17 17 16 17 16 16 17 18 18 19 21 22 22 20 19 20 21 24 27 30 32 35 38 40 43 45 48 49 49 47 45 42 40 38 36 33 30 27 24 21 17 15 13 11 9 7 8 10 9 8 7 7 7 7 7 5 5 7 11 11 11 13 13 13 15 17 20 23
46 44 43 41 40 38 36 34 32 31 29 28 27 26 25 23 22 20 19 18 18 18 18 18 17 17 17 18 18 19 21 23 23 21 20 20 21 23 26 29 32 34 37 39 42 44 47 49 49 48 46 43 41 39 37 34 32 29 26 23 19 16 13 12 10 8 8 9 10 10 9 7 7 8 7 5 5 8 11 12 12 12 12 10 12 15 18 22
48 46 44 43 41 40 38 36 34 32 31 30 29 28 26 25 23 22 21 20 20 19 19 19 18 17 17 18 18 19 21 23 23 22 21 21 21 23 26 29 31 34 36 39 41 44 46 48 49 49 47 44 41 40 38 36 33 31 28 24 21 17 14 12 10 9 10 9 8 11 12 9 7 7 8 7 6 9 11 13 14 12 13 11 11 14 16 21
49 47 46 45 43 41 39 38 36 34 33 32 31 30 28 27 25 24 22 21 21 21 20 20 19 18 17 18 18 19 21 23 23 23 22 21 22 24 26 28 30 33 36 38 41 43 45 48 49 50 49 45 43 41 39 37 34 32 29 25 21 18 15 12 10 9 10 9 7 8 12 11 9 7 8 8 8 10 11 14 15 15 15 15 13 14 15 19
51 49 47 46 44 42 41 39 38 36 35 33 32 31 30 28 27 25 24 23 22 22 21 20 19 18 18 18 18 19 21 22 23 23 22 22 23 24 26 28 30 32 35 37 40 42 44 47 50 50 50 47 44 42 41 39 36 33 29 25 21 18 16 13 10 8 10 10 7 7 11 12 10 8 9 10 9 9 11 13 15 16 17 17 16 17 16 19
52 50 49 47 45 44 42 41 39 38 36 35 34 32 31 30 28 27 25 24 23 22 21 20 20 19 19 19 19 19 21 22 23 24 23 23 23 24 26 28 30 32 34 36 38 41 43 47 49 50 50 48 45 44 43 41 39 34 29 25 21 18 16 13 9 8 9 9 7 8 10 11 10 10 11 12 11 8 8 11 13 14 15 15 16 18 19 21
54 52 50 48 47 45 44 42 40 39 37 36 35 33 32 31 29 28 26 25 24 22 22 21 20 20 19 19 19 19 21 22 23 24 24 24 24 25 26 28 30 32 33 36 38 40 43 46 48 50 51 50 47 45 44 43 40 36 31 26 22 18 16 13 10 8 8 8 8 7 8 9 10 10 12 13 13 10 9 10 12 13 13 13 15 18 20 22
55 53 51 50 48 46 45 43 41 40 39 38 36 35 33 32 30 29 27 26 24 23 22 21 21 20 20 20 20 20 21 22 24 24 24 24 24 25 26 28 29 31 33 36 38 40 42 44 46 49 50 51 48 46 45 44 41 37 33 28 24 21 18 15 12 10 8 8 9 9 9 8 9 10 12 13 14 12 11 11 12 13 14 15 16 18 20 22
56 54 53 51 49 47 45 44 42 41 40 39 37 36 34 33 31 30 28 27 25 24 23 23 22 21 20 20 20 20 21 23 24 24 24 24 24 25 26 27 29 31 33 35 37 39 41 43 45 48 50 51 50 47 46 45 41 38 34 30 25 21 18 14 12 11 10 7 8 9 10 9 9 10 11 14 15 15 14 13 13 13 15 16 17 18 20 22
56 55 53 52 50 48 46 45 43 42 41 40 38 37 35 34 32 30 29 28 26 25 24 24 23 22 21 21 20 20 21 23 24 24 24 24 25 25 26 27 29 30 32 34 36 38 40 42 44 46 49 51 51 48 46 45 42 37 32 28 24 19 16 14 11 10 9 7 7 8 9 10 9 9 11 13 15 16 16 15 14 13 14 16 17 18 19 21
57 55 54 52 50 49 47 46 45 43 42 40 38 37 36 34 32 31 30 29 28 27 26 25 24 23 22 21 21 21 22 23 24 24 24 24 25 25 26 27 28 29 31 33 34 36 38 40 43 45 48 50 51 49 46 45 42 37 30 25 23 19 14 13 12 10 9 8 7 7 8 10 10 9 11 13 14 15 15 15 14 14 15 16 17 18 19 21
58 56 54 53 51 50 48 47 46 44 42 40 39 37 36 34 33 32 31 30 29 28 27 25 24 24 23 22 22 22 23 24 25 24 24 24 25 26 26 27 27 28 30 32 34 36 37 39 41 44 47 50 51 49 47 45 42 36 30 24 22 19 14 12 12 11 11 11 10 10 10 10 10 10 9 11 13 15 15 15 15 15 16 17 17 18 20 22
58 57 55 53 52 51 49 48 47 45 43 41 40 38 36 35 33 33 32 31 30 29 28 27 25 25 24 23 23 23 24 25 25 25 24 25 26 26 26 27 27 28 30 31 33 35 37 39 40 43 46 48 50 50 47 45 42 37 30 24 21 20 16 12 11 11 11 11 11 11 12 11 12 11 10 10 12 14 15 15 16 16 17 18 18 19 21 22
60 58 56 54 53 51 50 49 47 46 44 42 41 39 37 36 35 34 33 32 31 30 29 28 26 26 25 24 24 24 25 26 26 26 25 25 26 26 27 27 28 29 30 31 33 34 36 38 40 42 45 48 50 50 48 44 41 37 31 25 21 18 16 12 10 10 9 10 10 9 11 12 13 13 12 12 12 14 15 16 17 18 19 20 21 22 22 22
61 59 57 56 54 53 51 50 48 47 45 43 42 40 38 37 36 35 34 34 32 31 30 29 27 26 26 25 25 26 27 27 27 26 25 25 27 27 27 28 28 29 29 31 33 34 36 38 40 42 45 47 49 50 48 44 41 37 31 27 21 17 15 13 11 9 8 8 10 10 10 11 13 14 15 16 16 16 18 18 19 21 21 22 23 23 22 20
62 61 59 57 56 54 53 51 50 48 46 44 43 41 40 39 37 36 35 35 34 32 31 30 28 27 26 26 26 27 28 28 27 26 25 26 27 28 29 29 29 29 30 31 33 34 36 37 39 41 44 46 48 49 48 45 41 37 31 27 23 17 14 13 11 11 10 8 9 11 12 11 13 15 16 17 18 19 20 20 21 21 22 22 23 22 19 18
64 62 61 59 57 56 54 53 51 49 48 46 44 43 42 40 39 38 37 36 35 34 32 31 29 28 27 27 28 29 29 28 27 27 26 26 27 28 29 30 30 30 30 31 33 34 35 36 38 40 42 44 46 48 48 46 42 37 32 28 24 19 14 12 10 10 11 10 11 12 13 14 14 15 17 18 18 19 21 22 22 22 22 22 22 20 17 18
66 64 62 61 59 58 56 55 53 51 50 48 46 45 43 42 40 39 38 37 36 35 34 32 30 29 28 29 30 30 30 28 27 27 26 27 28 28 29 30 30 30 31 31 32 33 35 36 37 39 41 43 46 47 48 47 43 37 33 28 25 21 16 12 10 9 9 10 11 12 14 15 15 16 17 18 18 20 22 23 24 24 23 22 21 20 19 20
68 66 64 63 61 60 58 57 55 53 52 50 48 47 45 44 42 41 40 39 38 37 36 34 32 30 30 30 31 31 31 29 27 27 27 28 28 29 30 30 30 30 31 31 32 33 34 35 37 39 41 42 45 47 47 47 44 39 34 29 25 22 18 14 11 10 9 9 10 12 14 16 18 17 18 19 20 21 23 23 24 24 23 23 22 21 21 21
69 68 66 65 63 62 60 59 57 55 54 52 50 48 47 46 44 43 42 41 40 39 37 35 33 32 31 32 32 31 32 31 28 27 28 29 29 30 30 31 32 31 31 32 32 33 35 35 37 39 40 42 44 46 47 47 44 40 36 31 26 23 20 16 13 11 11 9 9 12 14 16 18 19 19 20 21 22 23 23 23 22 21 22 23 23 22 23
70 69 68 66 65 64 62 61 59 57 55 54 52 51 49 47 46 45 44 43 42 40 38 37 35 34 33 33 32 31 33 33 30 29 30 30 30 31 31 32 33 32 32 33 33 34 35 35 37 39 40 41 44 45 46 47 45 41 38 33 28 25 22 19 16 14 13 11 10 11 15 16 18 20 19 19 20 21 22 22 22 21 21 23 25 25 25 27
71 70 69 67 66 65 63 62 61 59 57 55 54 53 51 49 48 47 47 45 44 42 40 38 37 36 35 34 33 32 33 34 32 31 31 31 32 32 32 33 33 33 33 34 34 34 35 36 37 39 40 41 43 44 45 46 45 42 39 35 30 27 23 20 19 17 16 14 12 12 15 16 18 21 20 19 20 20 21 21 21 22 23 25 27 28 28 29
72 71 69 68 67 66 64 63 62 60 59 57 56 55 53 51 50 50 49 47 45 44 41 40 40 39 37 35 35 34 34 35 34 33 33 33 33 34 34 34 34 34 34 35 35 34 36 37 38 39 40 42 43 44 44 45 44 43 40 36 32 29 25 22 21 20 19 17 14 14 16 17 18 21 20 19 20 21 21 21 22 23 24 27 28 29 30 30
72 71 70 69 68 67 65 64 63 62 60 59 58 56 55 54 54 52 50 49 47 45 43 43 43 40 38 38 37 36 35 36 36 35 35 35 35 35 35 35 35 36 36 35 35 35 36 37 39 40 41 43 44 44 44 44 44 43 40 37 35 31 27 25 24 22 22 20 17 16 18 19 20 22 21 20 21 22 22 23 23 23 24 26 28 30 31 31
73 72 71 70 69 68 67 66 64 63 62 61 60 59 58 58 56 54 52 50 48 46 45 45 44 42 41 40 39 38 37 37 38 38 37 37 36 36 36 36 37 37 37 36 35 36 38 39 40 41 42 44 44 44 44 43 43 43 40 38 36 33 29 27 26 24 24 23 19 19 20 20 22 23 22 21 22 23 23 24 24 23 24 26 28 30 31 32
74 73 72 71 70 69 68 67 66 65 64 63 62 62 61 60 58 55 52 50 48 46 46 46 46 45 43 42 41 41 39 38 39 41 40 39 38 38 38 37 37 38 38 37 36 37 39 41 42 42 43 44 44 43 43 43 44 43 41 39 37 33 32 30 28 27 26 25 22 21 21 22 23 24 23 22 23 24 25 25 25 24 25 27 29 30 32 33
75 74 73 72 71 70 69 68 67 66 66 65 65 64 63 61 58 54 52 51 50 49 49 49 50 49 46 44 44 43 41 39 40 42 42 42 40 39 39 39 38 39 39 39 38 38 40 42 43 44 45 45 43 43 44 43 44 43 41 40 37 35 34 32 30 29 28 27 24 22 22 23 24 25 24 23 23 25 26 26 26 26 26 28 30 32 33 33
76 75 74 73 72 71 70 69 68 67 67 66 66 66 64 60 58 55 55 55 54 53 52 52 52 51 48 46 46 46 44 42 42 43 44 44 43 41 41 40 40 41 41 40 40 39 40 42 43 45 47 47 44 42 43 44 44 44 41 40 38 36 36 34 32 31 30 29 26 24 23 23 25 25 24 23 24 25 27 28 28 27 27 30 32 34 34 35
78 76 75 74 73 72 70 69 69 68 68 68 68 67 64 61 59 59 58 58 57 56 55 54 53 52 51 50 49 49 47 45 44 45 45 45 44 42 41 42 41 42 42 42 42 42 43 43 43 46 48 47 45 42 43 44 44 43 41 40 38 38 37 36 34 33 32 31 29 26 25 25 26 26 25 25 25 27 29 30 30 29 29 31 34 36 36 38
79 78 76 75 74 72 71 70 69 69 69 69 70 68 65 63 63 62 61 60 59 58 57 55 53 53 54 53 52 52 50 48 47 47 47 47 45 44 43 43 43 44 45 45 45 45 46 45 45 46 48 47 45 43 43 44 44 43 41 40 39 39 38 38 36 35 34 34 32 29 28 28 29 30 29 28 28 29 31 33 34 33 31 33 37 39 40 41
81 80 79 78 76 74 72 71 70 70 70 71 71 69 66 65 65 63 62 60 59 59 59 58 55 56 57 57 56 55 53 51 50 50 50 48 47 46 45 45 44 46 48 47 47 47 48 48 47 47 48 47 46 44 44 44 43 42 41 40 40 39 39 39 38 36 36 35 34 32 31 31 31 32 32 32 32 33 34 36 37 36 36 37 40 42 43 45
83 81 81 80 78 76 74 73 72 71 71 72 72 69 67 67 66 63 61 61 62 61 62 60 59 59 61 60 59 57 56 54 53 54 53 50 48 48 47 46 46 48 50 49 49 49 50 51 51 47 47 47 46 46 45 44 42 41 41 39 39 38 39 39 39 38 38 37 36 34 34 34 33 33 34 35 36 37 38 40 41 40 40 42 44 45 46 48
85 83 83 82 81 79 77 76 75 74 73 74 73 72 70 69 67 63 62 64 65 64 64 63 62 62 63 63 61 59 57 57 56 57 56 53 51 50 48 48 48 49 52 52 51 51 52 53 53 49 46 46 46 47 46 44 42 41 41 40 39 38 38 39 40 40 40 39 38 36 36 36 35 35 35 36 38 39 41 42 43 43 43 45 46 47 48 49
86 85 85 84 83 81 79 78 77 76 76 76 76 74 72 70 68 65 66 69 69 67 66 66 64 65 65 65 64 62 60 59 60 59 58 56 55 52 49 49 49 50 54 55 53 53 54 55 54 51 47 46 46 46 46 45 43 42 42 41 40 39 38 39 40 41 41 40 40 38 38 38 37 37 38 39 40 41 43 44 45 45 45 47 48 49 50 51
88 87 87 86 85 83 81 80 79 78 79 79 78 76 74 72 71 69 70 72 71 69 69 68 67 67 68 68 67 64 63 63 63 61 60 58 57 54 51 51 51 51 56 58 56 55 56 56 54 52 49 47 46 44 45 45 44 43 43 44 43 40 39 39 41 42 42 42 41 40 39 39 37 38 39 40 41 43 44 45 46 46 47 48 50 51 52 53
90 89 89 87 86 84 82 81 81 80 81 80 79 78 75 74 73 71 71 73 72 71 71 71 70 69 69 70 69 67 65 66 66 64 62 60 58 55 53 53 53 53 57 60 59 57 57 56 54 52 50 50 48 45 44 43 44 44 45 45 45 42 41 42 42 42 43 43 42 42 41 40 38 38 39 39 40 43 45 46 47 47 49 50 52 54 55 56
92 91 90 88 87 85 84 83 83 83 83 82 81 80 77 76 76 74 74 76 75 74 74 73 72 71 71 72 71 69 68 69 69 66 63 62 60 58 56 55 55 55 58 61 60 59 58 56 55 53 51 51 50 48 45 43 42 44 45 46 46 44 43 43 44 44 45 44 44 43 43 42 41 40 40 40 41 44 47 49 50 50 51 53 54 56 57 58
92 91 90 89 89 88 87 86 85 84 84 83 82 81 79 78 79 77 77 78 78 76 76 75 74 73 73 73 72 71 70 71 71 68 65 63 61 60 59 58 57 57 59 62 61 60 59 57 54 53 53 53 52 50 49 46 44 43 45 46 47 46 45 45 44 45 46 45 45 45 44 44 45 45 44 43 44 47 49 51 52 52 53 54 55 56 58 59
92 90 90 91 91 90 89 88 86 85 85 84 83 82 80 78 78 77 78 79 78 76 76 76 74 74 75 75 74 72 71 71 72 71 68 65 63 62 60 60 59 59 60 62 62 62 60 57 54 54 54 54 53 53 53 52 48 44 44 46 48 48 48 47 46 47 47 46 47 47 45 45 47 48 47 47 47 48 51 52 52 52 54 55 57 57 59 60
93 92 92 92 92 92 91 90 88 88 87 86 85 84 83 81 81 80 81 80 78 77 77 76 76 76 77 76 75 73 72 72 72 72 71 69 66 63 61 61 61 60 61 63 64 62 61 58 56 56 55 54 54 55 56 56 52 48 47 48 49 50 51 50 48 47 47 47 47 48 46 45 48 49 49 48 48 49 51 52 52 52 54 56 57 58 59 61
94 94 94 93 92 92 92 91 90 89 89 88 87 88 87 85 85 84 84 83 81 79 79 80 79 79 78 78 76 75 74 73 73 73 73 72 69 66 64 62 61 60 62 65 65 63 61 60 58 57 55 55 57 58 58 57 54 52 50 51 52 53 54 52 50 49 49 48 48 48 47 47 48 49 49 49 48 50 52 52 52 52 54 55 57 59 60 62
96 95 95 94 92 92 92 92 91 90 90 89 89 89 89 87 86 86 86 85 83 82 81 82 82 80 79 79 77 75 74 73 73 73 73 74 73 70 68 66 63 62 62 63 65 64 63 62 60 57 56 58 61 61 60 58 56 54 53 54 56 57 55 53 51 51 51 49 49 48 48 48 49 50 51 50 50 51 52 53 53 54 55 56 58 60 61 63
97 96 95 94 93 93 92 92 92 92 92 90 89 89 89 87 87 87 87 86 84 83 83 83 83 82 80 79 78 76 75 74 73 73 74 75 74 73 72 69 66 64 63 63 63 64 64 64 63 61 60 62 63 63 62 61 58 56 56 58 59 58 56 55 54 54 53 52 51 51 50 51 51 51 52 53 53 54 55 55 56 56 57 58 59 61 62 65
98 97 96 95 94 94 94 93 93 94 93 92 90 89 88 88 87 88 88 86 86 86 86 85 84 83 81 80 78 76 75 75 74 74 74 75 75 75 74 72 69 67 66 64 63 64 65 66 66 65 64 65 65 64 63 62 59 59 60 61 59 57 57 57 57 56 55 54 54 53 54 54 53 53 54 55 56 57 58 58 58 58 58 59 60 61 64 67
Wind_Direction
214 216 218 219 219 220 222 225 227 229 232 238 245 254 264 275 290 304 317 321 325 332 338 348 356 1 3 4 4 4 4 8 11 13 14 15 16 17 19 20 20 19 19 18 17 17 17 17 18 18 18 19 19 17 14 10 11 15 21 26 33 37 40 46 47 46 46 43 38 43 69 85 83 77 77 77 78 75 66 67 68 54 49 35 5 352 343 337
216 218 220 221 221 221 223 225 228 231 233 238 245 251 259 269 282 292 303 312 316 322 331 340 349 355 358 359 360 1 360 2 7 9 10 12 14 15 17 18 19 19 19 18 17 17 16 15 16 16 16 17 18 17 15 11 5 8 15 15 16 22 28 38 40 35 37 37 34 32 39 59 73 71 66 69 68 56 46 49 54 42 39 37 31 22 7 359
218 219 221 222 223 223 224 227 229 232 234 238 244 250 257 265 274 283 295 305 309 315 323 332 341 348 353 354 355 357 356 356 1 5 6 9 11 13 15 16 17 17 17 18 17 17 16 15 14 13 13 16 16 15 14 12 10 10 7 358 356 0 7 23 28 19 21 31 33 33 30 34 50 60 62 72 74 60 43 40 38 31 31 33 32 29 23 18
219 220 221 224 225 225 226 228 230 233 236 239 244 249 256 262 270 278 288 298 303 309 316 325 334 341 346 348 349 352 351 351 354 360 2 6 8 9 12 13 14 15 15 16 17 16 15 14 14 12 11 14 14 13 12 11 11 9 359 343 337 342 349 4 11 359 354 11 25 29 31 32 39 45 43 55 69 64 49 40 36 30 30 33 34 33 28 25
221 221 222 224 226 227 228 229 231 234 237 240 244 249 254 260 267 274 283 292 298 304 310 318 327 333 339 342 344 346 347 347 349 355 359 2 5 6 7 9 11 12 13 14 15 15 15 14 13 11 10 12 12 11 11 11 10 5 357 345 334 330 334 342 348 338 329 337 360 16 29 37 42 44 38 30 36 43 39 32 26 20 21 26 31 34 31 28
221 222 223 225 227 228 229 230 232 235 238 241 245 249 253 258 264 271 279 287 293 299 306 312 321 328 333 337 340 342 343 345 346 349 355 358 0 2 3 5 7 9 11 12 13 13 14 13 12 10 10 10 10 9 9 9 7 2 356 348 336 323 313 313 318 315 314 318 329 348 12 30 42 42 34 19 356 8 23 21 12 2 1 1 3 19 25 20
222 222 224 226 227 229 230 231 233 236 238 241 245 248 252 257 262 268 275 283 289 295 301 308 316 324 329 332 336 338 339 341 343 345 350 354 356 357 359 1 4 6 8 9 10 11 12 12 11 10 9 10 9 8 8 7 5 1 354 346 338 323 306 297 296 292 294 302 312 325 347 5 19 31 26 17 353 345 7 11 3 353 350 349 351 7 13 9
222 223 224 226 228 229 231 232 234 236 238 241 245 248 251 255 260 266 272 279 285 291 297 304 312 319 324 328 332 334 335 338 340 342 346 350 352 353 356 358 1 3 5 7 8 9 10 11 10 8 8 8 7 6 6 5 2 359 353 345 338 326 310 297 290 287 285 285 295 307 319 335 346 5 18 20 5 340 343 353 357 353 352 354 357 4 6 4
222 223 225 226 228 230 231 233 234 237 239 242 245 248 251 255 259 264 269 275 281 287 293 300 308 315 320 324 327 329 331 335 337 339 343 346 348 349 352 355 357 360 2 4 5 7 8 10 8 7 8 7 5 5 4 2 360 357 352 346 340 329 317 301 288 283 283 283 286 291 300 313 323 343 1 11 9 341 331 335 350 357 355 353 356 1 3 1
222 223 225 226 228 230 232 233 235 237 239 242 245 248 251 254 258 263 267 273 278 284 290 296 303 309 315 320 323 326 329 332 335 337 340 343 344 345 349 351 354 357 359 1 3 4 7 8 7 7 7 5 4 3 2 360 358 355 352 348 342 333 321 307 292 278 275 280 286 284 282 295 310 327 341 345 352 341 330 328 340 353 348 338 348 359 2 360
222 223 225 227 229 230 232 234 236 238 240 242 245 248 251 254 258 262 266 271 276 282 287 293 298 304 311 315 319 322 326 330 333 335 337 340 341 343 346 348 351 355 357 359 1 3 5 6 6 7 6 4 2 1 0 359 357 354 352 348 342 334 323 312 299 283 273 273 285 290 283 282 295 314 325 326 329 331 328 326 331 340 340 333 345 356 356 357
223 224 225 227 229 231 233 234 237 238 240 243 246 249 251 255 258 262 266 270 275 280 284 288 293 299 306 311 315 319 323 327 330 332 334 337 338 340 343 345 349 352 355 358 360 2 3 3 5 7 6 3 1 359 358 358 357 355 352 347 341 334 326 316 303 290 281 275 278 291 289 285 289 304 311 311 318 325 324 324 328 334 340 337 339 346 344 349
224 224 225 227 229 231 233 235 237 239 241 243 246 249 252 255 258 262 266 270 274 278 281 284 289 295 303 308 311 316 321 324 328 330 332 335 337 339 341 343 347 351 354 357 359 0 1 2 5 6 5 2 0 358 357 356 356 355 353 348 341 334 327 319 307 293 283 281 286 292 293 294 299 308 309 305 314 328 326 324 328 333 340 337 334 337 332 335
224 225 226 227 229 231 233 235 237 239 242 244 246 249 252 255 259 263 266 269 272 275 278 281 286 293 300 304 308 313 318 321 325 329 331 334 336 337 339 342 346 349 353 356 357 358 359 2 4 4 4 2 359 357 356 355 355 355 354 349 343 336 329 323 312 298 290 291 302 301 299 303 312 317 311 307 311 319 318 317 323 330 336 334 329 330 325 327
225 225 226 228 229 231 233 235 237 239 242 244 247 250 252 256 259 262 265 267 270 272 275 279 284 291 297 301 305 310 315 319 323 326 329 332 334 336 338 341 344 347 351 353 354 356 359 1 2 3 3 1 359 357 355 355 354 353 353 351 348 343 336 331 322 314 308 305 304 298 298 307 316 316 307 304 307 309 305 308 317 322 325 326 325 323 321 323
226 226 227 228 229 231 233 235 237 239 242 244 246 249 252 255 258 261 263 265 267 270 274 277 282 288 294 297 301 307 312 316 320 324 327 331 333 334 337 339 342 345 349 352 354 356 358 359 1 2 2 1 359 357 355 355 353 352 352 352 351 347 342 339 331 323 319 314 306 299 299 303 307 305 299 299 301 303 304 308 314 315 314 317 319 317 316 319
226 227 227 229 230 231 233 235 237 239 241 243 246 249 252 255 257 259 261 264 266 269 272 276 281 286 291 294 297 302 308 312 316 321 325 328 330 332 334 336 340 345 349 351 352 354 355 357 359 0 1 0 359 357 355 354 353 352 351 351 350 346 342 340 332 320 315 312 300 294 295 295 298 301 303 303 303 307 310 313 316 314 312 311 312 311 312 315
226 227 228 229 230 231 232 234 236 238 241 243 246 248 251 254 256 258 260 263 265 268 271 275 279 284 288 290 292 298 304 309 313 317 322 325 327 329 332 334 339 344 347 348 349 351 353 354 356 359 359 359 359 357 355 353 353 353 351 347 345 344 339 334 327 315 306 296 285 284 290 295 301 307 309 308 308 313 316 318 319 314 311 309 310 311 312 316
226 227 228 229 230 231 232 234 236 238 240 242 245 247 250 252 254 256 259 261 264 267 270 274 278 282 285 286 289 294 301 305 309 313 318 322 324 327 330 334 338 341 343 344 346 348 350 351 354 357 358 359 359 358 355 353 354 353 350 343 340 341 338 333 333 330 321 312 306 302 303 306 308 311 311 309 308 311 314 317 317 312 310 308 309 312 314 318
226 226 227 228 229 230 232 233 235 237 239 241 244 246 248 250 252 255 258 261 264 267 270 273 277 280 282 283 286 291 297 301 305 309 313 318 322 326 329 332 334 336 339 341 343 345 346 349 353 355 357 358 358 357 355 354 353 352 349 342 338 339 340 339 343 347 343 336 336 332 324 318 312 308 305 305 309 311 313 315 314 311 310 309 309 313 317 320
225 226 227 228 229 230 231 233 235 237 239 241 242 244 246 248 251 254 258 261 264 267 270 273 276 278 279 280 283 289 294 299 302 306 311 315 320 323 327 330 331 332 336 338 339 342 344 347 351 354 356 357 358 357 355 353 352 351 349 342 336 337 342 347 349 356 354 342 341 339 329 323 316 310 307 307 310 312 312 313 314 312 312 313 314 318 320 321
225 226 226 227 228 230 231 233 235 237 238 240 242 244 245 248 251 254 257 260 264 267 270 272 274 276 276 278 282 287 293 296 300 304 308 312 316 320 324 327 329 330 333 335 337 339 342 344 348 351 354 356 357 357 355 353 352 351 348 343 338 336 339 347 353 358 358 340 335 339 330 323 321 319 319 317 313 311 313 317 321 320 319 319 320 321 322 323
225 226 226 227 228 230 231 233 235 236 238 240 242 244 245 248 251 254 257 260 263 266 269 271 273 273 274 276 281 286 291 294 297 301 305 308 312 316 321 325 328 329 330 332 334 337 339 342 346 350 352 354 355 356 356 353 352 351 349 344 341 337 336 341 349 355 359 345 334 334 330 324 324 327 327 325 322 321 321 323 324 322 321 320 320 321 323 327
225 226 226 227 228 230 231 233 235 237 238 240 242 244 246 248 251 254 257 260 263 265 268 270 271 271 272 275 280 285 288 291 294 298 302 305 309 314 318 322 326 327 328 329 332 335 338 341 345 347 349 352 353 355 355 353 352 351 349 346 343 341 338 338 344 347 350 351 339 331 330 329 327 327 326 323 324 325 325 324 323 321 320 319 320 322 325 331
226 226 227 228 229 230 232 233 235 237 239 241 243 244 246 248 251 254 257 260 262 265 266 268 268 269 271 275 279 284 286 288 291 295 299 302 307 311 315 319 323 324 325 327 330 332 335 339 341 343 346 350 351 353 354 353 352 351 349 346 344 344 342 339 343 342 337 339 338 331 328 328 326 324 321 320 322 323 323 323 322 320 319 318 320 323 326 330
226 227 228 229 230 231 232 234 235 237 239 241 243 244 246 248 251 254 257 260 262 264 265 265 266 267 270 274 279 282 283 285 289 293 296 300 304 308 312 316 319 321 322 324 326 329 332 335 337 339 344 347 349 351 353 352 352 351 349 347 344 345 346 343 343 342 332 328 329 327 322 319 320 319 316 316 320 321 320 321 322 323 322 321 323 325 327 329
227 228 229 230 231 232 233 234 236 237 239 241 243 245 246 249 251 254 257 259 260 262 263 264 265 267 270 274 277 279 280 282 286 289 293 297 302 306 308 312 315 318 319 320 322 324 327 331 333 336 341 344 346 349 351 351 351 351 349 347 343 342 345 345 343 341 334 327 324 320 315 313 316 317 315 316 320 320 319 321 324 326 325 323 324 325 327 329
228 229 230 231 232 233 234 235 236 238 239 241 243 245 246 249 251 254 256 258 259 261 263 263 265 267 270 273 275 277 278 280 283 287 290 295 299 303 306 308 312 315 316 316 319 321 324 328 331 334 339 342 343 347 349 349 350 349 348 347 343 339 341 342 340 336 332 330 322 313 311 312 313 315 315 317 320 320 319 320 322 323 323 320 321 323 325 328
228 229 231 232 233 234 235 236 237 238 239 241 243 245 247 249 251 253 255 257 259 260 261 262 264 266 269 271 273 274 276 278 282 285 289 293 296 299 302 305 309 312 313 314 317 319 322 326 329 332 337 339 341 345 346 347 348 348 346 345 342 338 337 335 333 329 326 328 325 313 310 312 311 310 312 316 320 321 319 318 318 320 321 321 321 324 328 331
228 229 231 232 233 234 235 236 237 238 239 241 243 245 247 249 250 253 255 256 258 259 260 261 263 265 267 269 269 270 273 277 281 284 287 291 294 297 299 303 306 309 310 312 315 318 320 323 326 330 334 336 338 342 344 344 345 345 345 344 341 338 334 329 324 322 321 325 326 316 311 312 309 307 309 316 320 320 318 317 318 322 324 324 324 327 330 332
227 228 230 231 233 234 235 236 237 238 240 241 243 245 246 248 250 252 253 255 257 258 259 260 262 265 267 267 267 268 271 275 279 282 285 288 292 294 297 301 304 306 308 311 313 316 317 320 324 328 331 333 335 339 341 342 342 342 343 343 340 338 333 324 318 316 316 320 324 318 312 310 305 303 309 318 321 319 318 318 320 324 325 324 324 325 327 327
227 228 229 231 232 233 235 236 237 238 239 241 242 244 246 247 249 250 253 254 256 258 259 261 263 266 267 266 265 267 270 275 278 281 283 286 289 292 295 299 301 303 306 309 311 313 315 318 322 326 328 329 333 336 337 339 339 340 341 340 338 337 332 323 317 314 311 314 319 316 312 309 304 303 310 318 320 318 317 318 319 321 321 319 319 320 321 322
227 228 229 231 232 233 234 235 237 238 239 241 242 244 245 246 248 250 252 254 256 258 260 262 265 265 264 263 264 266 269 273 278 280 282 285 287 290 294 297 299 302 304 307 310 311 312 316 320 324 325 326 330 334 334 335 336 338 339 337 336 334 330 325 321 315 310 309 313 313 311 310 306 306 311 316 318 317 315 314 314 314 313 312 313 315 317 320
228 229 230 231 232 233 234 236 237 238 239 241 242 243 245 246 248 250 253 255 256 257 259 261 262 261 260 261 263 265 267 271 276 279 282 283 286 289 293 295 298 300 302 305 308 310 311 315 319 321 322 324 329 331 331 332 333 335 336 336 335 332 328 327 322 317 310 307 310 311 310 309 306 306 310 314 317 315 312 309 308 307 307 307 309 312 315 318
228 229 230 231 232 233 235 236 237 238 240 241 242 243 245 246 248 250 252 253 253 254 256 258 259 259 259 259 262 265 267 270 274 278 281 283 285 289 292 294 296 298 300 302 305 308 310 313 317 318 318 322 327 328 328 328 329 332 333 333 333 330 328 326 321 316 312 308 309 308 306 305 303 304 307 310 313 311 308 305 302 302 303 305 308 311 314 316
229 230 230 231 233 234 235 236 237 239 240 241 243 244 245 246 248 249 249 251 252 253 254 256 257 259 260 261 263 265 268 270 273 276 279 281 285 288 290 292 294 296 298 300 302 305 307 310 313 314 316 320 324 325 325 324 326 330 331 331 330 327 327 326 321 317 314 310 308 303 299 299 298 300 303 307 309 308 305 302 300 301 303 306 308 309 311 314
230 231 231 232 233 234 235 236 238 239 240 242 243 244 245 246 247 248 249 251 253 254 255 256 257 260 261 263 264 266 268 270 272 274 276 279 283 286 288 290 293 294 296 298 300 303 304 307 309 311 314 318 321 322 322 321 324 328 328 327 327 326 326 325 322 320 316 312 310 304 300 298 298 299 302 305 307 307 306 304 302 303 305 307 307 308 311 315
230 231 232 233 233 234 235 236 238 239 241 242 243 244 245 246 247 248 249 251 253 255 256 256 257 259 262 263 265 266 267 269 271 273 275 277 281 284 286 288 290 292 293 296 298 301 302 304 307 309 313 316 318 319 318 318 322 326 325 324 324 324 323 323 323 320 317 314 312 309 305 303 303 304 305 307 309 309 308 307 306 306 308 309 310 311 314 318
230 231 232 233 234 234 235 236 238 239 241 242 243 244 245 246 247 248 249 251 253 254 255 256 256 258 260 261 263 265 267 269 271 272 273 276 279 281 284 286 289 290 292 294 297 299 300 303 305 308 311 314 315 315 315 317 321 323 322 321 321 320 319 320 321 320 317 316 315 313 310 306 306 306 308 310 312 312 311 310 308 309 311 313 313 314 316 319
230 231 232 233 234 235 235 236 237 239 240 242 243 244 244 245 246 247 249 251 251 252 254 255 256 258 259 261 262 265 267 269 271 272 273 275 278 280 283 286 288 290 291 293 296 297 299 301 304 307 310 311 312 312 313 317 319 319 319 319 318 317 316 316 318 319 318 318 317 314 310 307 306 306 308 311 313 313 312 311 310 311 314 314 314 314 316 319
230 231 233 234 234 235 235 236 237 238 240 242 243 244 244 245 246 248 249 250 251 251 253 255 257 258 260 262 263 264 266 269 270 271 273 276 277 280 283 286 288 290 291 292 295 296 298 301 303 306 308 308 309 310 312 315 317 316 317 317 316 316 315 313 314 316 316 317 316 314 310 308 307 308 309 311 312 312 311 310 311 312 313 313 312 313 315 317
230 231 233 234 234 235 236 237 238 239 240 241 243 244 244 245 247 247 248 249 250 251 253 255 256 258 260 262 263 265 267 268 269 271 273 275 276 279 282 285 287 288 289 291 294 296 297 300 302 304 305 305 306 308 310 313 314 314 315 314 314 316 316 312 311 313 315 316 315 314 311 309 308 309 309 309 310 310 309 309 309 310 311 310 310 311 313 315
230 231 233 234 235 235 236 237 238 239 241 242 243 245 246 246 247 247 249 250 252 253 254 255 256 258 260 262 263 265 267 268 269 270 272 274 276 278 281 283 285 287 288 290 293 295 296 298 300 301 303 303 303 306 308 310 311 312 312 312 313 315 315 311 309 310 312 314 314 313 310 308 308 307 305 306 308 307 306 306 306 307 308 307 309 311 313 315
230 231 233 234 235 236 237 238 239 240 241 242 244 245 246 247 248 248 249 251 252 253 254 255 256 257 259 261 263 265 267 268 269 270 272 274 276 278 280 282 284 285 286 289 292 294 294 296 298 299 301 301 302 305 306 306 308 309 309 309 311 313 313 310 309 309 310 312 313 312 309 308 306 303 300 302 303 303 303 304 305 307 308 309 311 312 315 316
230 231 233 234 236 236 237 238 239 240 241 242 243 244 245 246 247 247 248 250 251 252 253 254 256 257 259 261 263 265 266 267 269 270 272 274 276 278 280 281 283 285 286 287 290 292 293 294 296 297 299 298 301 304 305 304 305 305 305 307 307 308 309 307 306 306 308 310 310 309 308 308 305 303 301 302 303 304 305 305 306 308 309 310 311 313 314 314
230 231 233 234 235 236 236 237 238 240 241 242 244 245 245 246 248 249 249 250 251 252 253 255 257 258 260 261 263 264 266 268 270 271 273 274 276 278 280 282 283 284 284 286 289 290 291 293 294 295 296 297 300 303 302 302 303 303 302 303 304 305 306 304 301 302 305 308 306 307 309 309 306 305 304 304 305 306 305 305 306 307 308 309 310 311 312 312
230 231 232 234 235 236 236 237 238 239 241 242 243 244 245 245 247 249 249 250 252 253 255 256 257 259 260 261 262 264 266 268 270 272 274 275 276 278 280 282 282 282 283 285 287 288 290 291 292 293 294 297 299 301 301 302 304 303 301 299 300 302 302 301 301 302 304 304 302 304 308 306 303 303 303 303 304 303 302 303 304 306 307 307 308 309 310 310
231 231 232 234 235 236 236 237 238 239 240 241 242 243 244 244 245 246 248 250 251 252 254 255 256 257 259 261 263 265 267 268 271 273 275 276 277 278 279 279 280 281 283 285 286 287 288 289 290 292 294 296 297 297 300 303 304 302 300 298 299 299 298 299 302 302 301 300 298 299 302 299 297 298 299 299 300 299 299 300 302 303 303 304 305 307 308 308
231 232 233 234 235 236 237 237 238 239 241 242 243 243 244 244 245 246 248 250 250 251 253 254 256 257 259 262 264 265 267 269 271 273 275 277 277 276 276 276 278 280 281 283 285 286 286 287 289 292 294 293 293 295 299 301 301 300 299 297 297 296 296 299 301 299 298 298 297 296 296 294 293 293 294 295 295 295 296 297 299 300 300 302 304 306 307 308
231 232 233 234 235 237 238 238 238 239 240 241 243 244 245 246 247 248 249 250 252 252 254 255 257 258 260 262 264 266 268 270 271 273 274 275 275 276 276 276 277 278 279 281 283 285 285 287 289 291 290 290 293 296 298 297 298 298 297 296 296 297 297 298 296 295 296 297 296 295 294 293 291 291 292 293 294 294 295 297 298 299 300 302 304 305 307 308
232 233 234 234 235 237 238 239 239 239 240 241 243 244 245 246 247 249 250 251 252 253 254 255 257 258 260 262 264 266 267 268 270 270 271 273 274 275 276 277 278 278 278 279 280 282 285 286 288 289 289 290 292 295 296 296 297 296 294 294 296 298 297 296 294 295 296 296 295 296 295 293 292 292 293 294 295 296 297 298 298 299 301 302 304 306 308 309
232 233 234 235 236 237 238 239 239 240 240 241 242 244 245 246 247 249 250 251 252 253 254 255 257 258 260 262 263 265 266 267 267 268 269 270 272 274 276 278 278 278 277 278 279 281 283 285 287 288 289 290 291 293 294 295 295 294 293 295 296 295 294 293 293 295 295 294 295 295 294 293 293 294 295 295 296 298 298 298 299 300 301 303 305 308 310 310
Height
11040 11042 11043 11044 11045 11045 11046 11047 11047 11047 11048 11048 11048 11048 11048 11048 11048 11048 11048 11047 11047 11046 11045 11045 11044 11044 11043 11042 11041 11040 11038 11037 11035 11034 11032 11030 11028 11026 11024 11022 11020 11017 11014 11010 11007 11004 11001 10999 10997 10996 10994 10992 10991 10990 10989 10987 10986 10985 10983 10982 10981 10980 10980 10980 10980 10980 10979 10978 10977 10977 10978 10979 10977 10976 10975 10974 10974 10974 10973 10972 10972 10972 10971 10970 10969 10967 10967 10967
11039 11040 11041 11043 11043 11044 11045 11045 11046 11046 11047 11047 11047 11047 11048 11048 11048 11048 11047 11047 11047 11046 11045 11045 11044 11044 11043 11042 11041 11040 11039 11037 11036 11034 11032 11031 11029 11027 11025 11023 11021 11018 11015 11012 11008 11005 11002 11000 10998 10996 10995 10993 10991 10991 10989 10988 10987 10985 10983 10982 10982 10982 10981 10981 10981 10980 10979 10979 10978 10977 10977 10978 10977 10976 10975 10975 10974 10973 10972 10971 10971 10971 10970 10969 10969 10967 10966 10966
11037 11039 11040 11041 11042 11043 11043 11044 11045 11045 11046 11046 11046 11047 11047 11047 11047 11047 11047 11047 11046 11046 11045 11044 11044 11043 11043 11042 11041 11040 11039 11037 11036 11034 11033 11031 11029 11027 11026 11024 11021 11019 11016 11013 11010 11007 11004 11001 10998 10997 10995 10993 10991 10990 10990 10989 10987 10985 10985 10984 10984 10983 10982 10982 10981 10979 10979 10979 10979 10978 10977 10977 10977 10976 10975 10975 10974 10974 10972 10971 10970 10970 10969 10968 10968 10967 10966 10965
11035 11037 11038 11039 11040 11041 11042 11043 11043 11044 11045 11045 11045 11046 11046 11046 11046 11046 11046 11046 11046 11045 11045 11044 11043 11043 11042 11042 11041 11040 11039 11038 11036 11035 11033 11031 11029 11027 11026 11024 11022 11020 11017 11014 11011 11008 11005 11002 10999 10997 10995 10992 10991 10990 10989 10988 10986 10986 10986 10985 10984 10983 10983 10982 10981 10979 10978 10979 10979 10978 10978 10977 10977 10976 10975 10974 10973 10974 10972 10971 10970 10969 10968 10967 10966 10966 10965 10965
11033 11035 11036 11037 11038 11039 11040 11041 11042 11043 11043 11044 11044 11044 11045 11045 11046 11046 11046 11046 11045 11045 11044 11043 11043 11042 11042 11041 11040 11040 11039 11038 11036 11034 11033 11031 11029 11028 11026 11024 11022 11020 11018 11015 11012 11009 11006 11003 11001 10998 10995 10993 10991 10990 10988 10986 10985 10986 10985 10985 10984 10983 10983 10982 10981 10979 10977 10978 10978 10978 10977 10978 10978 10977 10975 10974 10973 10973 10972 10971 10969 10968 10968 10966 10965 10965 10964 10964
11031 11033 11034 11035 11036 11037 11038 11039 11040 11041 11042 11042 11043 11043 11044 11044 11045 11045 11045 11045 11044 11044 11043 11042 11042 11042 11041 11041 11040 11039 11038 11037 11036 11034 11032 11030 11029 11028 11026 11024 11022 11020 11018 11015 11013 11010 11007 11005 11002 10999 10997 10994 10992 10990 10988 10987 10986 10986 10985 10984 10984 10983 10983 10982 10981 10979 10977 10976 10976 10976 10977 10977 10977 10977 10976 10974 10972 10972 10972 10971 10970 10969 10968 10967 10966 10965 10963 10962
11028 11030 11031 11033 11034 11035 11036 11037 11038 11039 11040 11041 11041 11042 11042 11043 11043 11044 11044 11044 11043 11043 11042 11042 11041 11041 11040 11040 11039 11038 11037 11036 11035 11034 11032 11030 11029 11028 11026 11024 11022 11020 11018 11015 11013 11011 11008 11005 11003 11001 10998 10994 10992 10991 10989 10988 10987 10986 10985 10984 10983 10982 10982 10982 10981 10979 10977 10975 10974 10975 10975 10975 10976 10976 10976 10975 10973 10971 10972 10971 10970 10969 10968 10967 10966 10964 10962 10961
11026 11028 11029 11030 11031 11033 11034 11035 11036 11037 11038 11039 11039 11040 11041 11041 11042 11042 11043 11043 11042 11042 11041 11041 11040 11040 11040 11039 11038 11037 11036 11035 11034 11033 11032 11030 11029 11027 11026 11024 11022 11020 11018 11016 11013 11011 11008 11005 11003 11001 10998 10995 10993 10991 10989 10988 10987 10986 10985 10984 10983 10981 10980 10980 10980 10978 10976 10974 10974 10974 10974 10974 10974 10975 10976 10976 10974 10971 10971 10971 10970 10969 10968 10967 10965 10963 10961 10960
11023 11025 11026 11028 11029 11030 11032 11033 11034 11035 11036 11037 11038 11038 11039 11040 11041 11041 11041 11041 11041 11041 11040 11040 11040 11039 11039 11038 11037 11036 11035 11034 11034 11033 11031 11030 11028 11027 11025 11023 11021 11019 11017 11015 11013 11011 11008 11005 11003 11001 10997 10995 10993 10991 10990 10988 10987 10986 10985 10983 10982 10980 10979 10978 10978 10977 10975 10973 10973 10973 10973 10974 10973 10974 10974 10975 10974 10972 10970 10970 10970 10969 10968 10967 10966 10964 10962 10960
11020 11022 11024 11025 11026 11028 11029 11030 11032 11033 11034 11035 11036 11037 11037 11038 11039 11040 11040 11040 11040 11039 11039 11039 11039 11039 11038 11037 11036 11036 11034 11033 11032 11031 11030 11029 11028 11026 11025 11023 11021 11019 11017 11015 11013 11010 11008 11006 11004 11000 10997 10995 10993 10991 10990 10988 10986 10984 10983 10982 10980 10979 10977 10976 10976 10976 10974 10973 10972 10971 10972 10973 10973 10973 10973 10974 10974 10972 10970 10969 10969 10969 10968 10968 10966 10964 10962 10960
11017 11019 11021 11022 11024 11025 11027 11028 11030 11031 11032 11033 11034 11035 11036 11037 11037 11038 11038 11038 11038 11038 11038 11038 11037 11038 11037 11036 11036 11035 11034 11032 11031 11030 11029 11028 11027 11026 11024 11022 11020 11018 11016 11014 11012 11009 11007 11006 11003 11000 10997 10995 10993 10991 10989 10987 10985 10983 10981 10980 10978 10977 10976 10975 10974 10973 10972 10972 10971 10969 10969 10971 10972 10972 10972 10972 10973 10972 10970 10968 10968 10968 10967 10966 10965 10963 10961 10960
11014 11016 11018 11019 11021 11023 11024 11026 11027 11028 11030 11031 11032 11033 11034 11035 11035 11036 11036 11037 11037 11037 11036 11036 11036 11036 11036 11035 11035 11034 11033 11032 11031 11030 11029 11028 11026 11025 11023 11022 11020 11018 11016 11014 11011 11009 11007 11005 11002 10999 10996 10994 10992 10990 10988 10987 10985 10982 10980 10979 10977 10976 10975 10974 10973 10972 10970 10971 10972 10969 10967 10968 10970 10971 10971 10971 10972 10971 10969 10967 10966 10967 10965 10963 10962 10961 10960 10959
11011 11013 11015 11016 11018 11020 11021 11023 11025 11026 11027 11028 11029 11030 11031 11032 11033 11034 11034 11035 11035 11035 11035 11035 11035 11034 11034 11034 11033 11033 11032 11031 11030 11029 11028 11027 11025 11024 11023 11021 11019 11017 11015 11013 11011 11009 11007 11004 11000 10998 10996 10994 10991 10989 10987 10985 10983 10981 10980 10978 10976 10974 10973 10973 10972 10971 10969 10969 10970 10969 10966 10966 10967 10969 10969 10969 10970 10970 10968 10967 10966 10965 10964 10962 10960 10959 10958 10958
11007 11010 11012 11013 11015 11017 11019 11020 11022 11023 11024 11026 11027 11028 11029 11030 11031 11032 11032 11033 11033 11033 11033 11033 11033 11033 11032 11032 11032 11031 11030 11029 11028 11027 11026 11025 11024 11023 11022 11020 11018 11016 11014 11012 11011 11009 11006 11002 10999 10998 10996 10993 10991 10988 10986 10983 10980 10979 10979 10977 10975 10973 10972 10972 10972 10970 10968 10968 10968 10968 10966 10965 10966 10966 10966 10966 10968 10969 10968 10967 10965 10964 10964 10962 10960 10958 10957 10956
11004 11006 11008 11010 11012 11014 11016 11017 11019 11020 11022 11023 11024 11025 11026 11027 11028 11029 11030 11031 11031 11031 11031 11031 11031 11031 11031 11030 11030 11030 11029 11028 11027 11026 11025 11024 11023 11022 11020 11019 11017 11015 11014 11012 11010 11008 11005 11002 11000 10998 10995 10993 10990 10987 10984 10981 10979 10977 10976 10975 10974 10972 10971 10970 10970 10969 10968 10967 10967 10967 10966 10966 10966 10965 10964 10963 10965 10966 10967 10966 10965 10963 10963 10963 10961 10959 10957 10956
11000 11003 11005 11007 11009 11011 11013 11015 11016 11018 11019 11020 11022 11023 11024 11025 11026 11027 11027 11028 11029 11029 11029 11029 11029 11029 11029 11029 11028 11028 11027 11026 11025 11025 11024 11023 11022 11021 11020 11018 11016 11014 11012 11010 11008 11006 11005 11003 11001 10998 10995 10992 10990 10987 10983 10980 10977 10975 10973 10972 10971 10970 10970 10969 10968 10967 10968 10967 10966 10966 10966 10966 10966 10966 10964 10963 10963 10964 10964 10964 10964 10962 10962 10962 10961 10959 10957 10956
10996 10999 11001 11003 11006 11008 11010 11011 11013 11015 11016 11017 11019 11020 11021 11022 11023 11024 11025 11026 11026 11027 11027 11027 11027 11027 11027 11027 11027 11026 11026 11025 11024 11023 11023 11022 11021 11020 11019 11018 11016 11013 11011 11009 11007 11006 11004 11003 11000 10998 10995 10992 10989 10986 10982 10979 10976 10973 10970 10969 10969 10969 10968 10968 10967 10966 10966 10966 10965 10965 10965 10965 10966 10965 10963 10962 10961 10961 10962 10963 10963 10962 10961 10960 10960 10959 10957 10955
10993 10995 10998 11000 11002 11004 11006 11008 11010 11011 11013 11014 11016 11017 11018 11020 11021 11022 11022 11023 11024 11024 11025 11025 11025 11026 11026 11025 11025 11025 11024 11023 11023 11022 11021 11021 11020 11019 11018 11017 11015 11012 11011 11009 11007 11006 11004 11003 11000 10998 10995 10991 10988 10985 10981 10979 10976 10972 10969 10968 10968 10968 10968 10968 10967 10966 10966 10965 10965 10964 10963 10964 10964 10964 10963 10962 10960 10960 10961 10961 10962 10962 10961 10960 10958 10957 10955 10953
10989 10991 10994 10996 10999 11001 11003 11005 11006 11008 11009 11011 11013 11014 11015 11017 11018 11019 11020 11021 11021 11022 11023 11023 11023 11023 11023 11023 11023 11023 11022 11022 11021 11021 11020 11020 11019 11018 11017 11016 11014 11012 11011 11009 11008 11006 11004 11003 11000 10997 10994 10990 10987 10984 10981 10978 10975 10972 10971 10969 10968 10969 10968 10967 10966 10965 10964 10963 10963 10962 10962 10962 10962 10963 10962 10961 10960 10960 10960 10960 10960 10960 10960 10959 10957 10955 10953 10951
10984 10987 10990 10992 10995 10997 10999 11001 11003 11004 11006 11008 11009 11011 11012 11014 11015 11016 11017 11018 11019 11020 11020 11021 11021 11021 11021 11021 11021 11021 11020 11020 11020 11019 11019 11018 11017 11016 11016 11015 11013 11012 11011 11009 11007 11006 11003 11002 10999 10996 10993 10990 10987 10984 10980 10977 10974 10973 10971 10969 10968 10968 10968 10966 10965 10964 10963 10961 10961 10961 10960 10960 10960 10961 10961 10961 10959 10959 10959 10959 10959 10959 10958 10957 10956 10954 10952 10949
10980 10983 10986 10988 10991 10993 10995 10997 10999 11001 11003 11004 11006 11008 11009 11011 11012 11013 11014 11015 11016 11017 11018 11018 11019 11019 11019 11019 11019 11019 11018 11018 11018 11017 11017 11016 11015 11015 11015 11014 11013 11012 11010 11008 11007 11005 11002 11000 10998 10996 10993 10990 10987 10983 10980 10976 10974 10973 10971 10969 10967 10966 10966 10966 10965 10964 10963 10961 10961 10960 10959 10958 10958 10958 10959 10959 10958 10957 10957 10957 10957 10956 10956 10954 10953 10951 10949 10947
10975 10978 10982 10984 10987 10989 10992 10993 10995 10997 10999 11001 11003 11004 11006 11008 11009 11010 11011 11012 11013 11014 11015 11016 11016 11016 11016 11016 11017 11017 11016 11016 11015 11015 11015 11014 11014 11014 11013 11013 11012 11010 11009 11007 11005 11004 11001 10999 10997 10995 10992 10989 10986 10983 10979 10976 10974 10972 10970 10968 10966 10964 10964 10964 10964 10964 10963 10962 10961 10961 10959 10958 10957 10956 10956 10956 10957 10956 10955 10955 10954 10953 10952 10951 10950 10948 10947 10945
10971 10974 10977 10980 10983 10985 10987 10989 10991 10993 10996 10998 10999 11001 11003 11004 11006 11007 11008 11009 11010 11011 11012 11013 11014 11014 11014 11014 11014 11014 11014 11014 11013 11013 11013 11012 11011 11011 11011 11011 11010 11008 11007 11005 11004 11002 11000 10997 10994 10992 10989 10987 10985 10982 10979 10976 10974 10972 10970 10968 10966 10964 10962 10962 10963 10963 10963 10963 10961 10960 10960 10958 10956 10955 10954 10954 10954 10953 10952 10952 10951 10950 10949 10948 10947 10946 10945 10942
10966 10969 10972 10976 10978 10981 10983 10985 10987 10990 10992 10994 10996 10998 10999 11001 11002 11004 11005 11006 11007 11008 11009 11010 11011 11011 11011 11011 11011 11012 11012 11012 11012 11011 11011 11010 11009 11009 11008 11008 11008 11006 11005 11003 11001 11000 10998 10995 10992 10990 10988 10986 10984 10982 10979 10976 10974 10971 10969 10967 10965 10964 10962 10961 10961 10961 10961 10962 10961 10959 10958 10957 10955 10954 10953 10952 10951 10951 10950 10949 10949 10948 10947 10946 10945 10944 10942 10941
10961 10964 10968 10971 10974 10976 10979 10981 10983 10985 10988 10990 10992 10994 10996 10997 10999 11000 11001 11002 11003 11004 11006 11007 11008 11008 11008 11008 11009 11009 11009 11009 11009 11009 11009 11008 11007 11007 11006 11005 11004 11003 11002 11001 10999 10997 10996 10994 10992 10990 10988 10986 10983 10981 10978 10976 10973 10970 10968 10966 10965 10963 10962 10961 10961 10960 10960 10960 10959 10958 10956 10955 10955 10954 10953 10952 10951 10950 10948 10947 10947 10946 10945 10943 10942 10941 10940 10939
10956 10959 10963 10966 10969 10972 10974 10976 10979 10981 10983 10986 10988 10990 10992 10993 10995 10996 10997 10998 10999 11000 11002 11004 11005 11005 11006 11006 11006 11006 11006 11007 11007 11007 11006 11006 11005 11005 11004 11004 11003 11002 11000 10999 10998 10996 10995 10994 10992 10990 10988 10985 10982 10980 10977 10974 10972 10970 10967 10965 10964 10963 10962 10961 10960 10960 10960 10959 10958 10957 10955 10954 10954 10953 10952 10951 10950 10949 10947 10945 10944 10942 10940 10939 10938 10937 10937 10936
10951 10954 10958 10961 10964 10967 10969 10972 10974 10977 10979 10982 10984 10986 10988 10989 10991 10992 10993 10994 10995 10996 10998 11000 11002 11002 11003 11003 11002 11003 11003 11003 11005 11005 11004 11003 11003 11003 11002 11001 11001 11001 10999 10998 10997 10995 10994 10993 10990 10988 10986 10983 10981 10979 10976 10973 10970 10968 10966 10964 10963 10962 10961 10960 10960 10960 10960 10959 10958 10957 10955 10953 10952 10951 10950 10949 10948 10946 10944 10943 10941 10940 10937 10936 10935 10934 10934 10933
10946 10949 10953 10956 10959 10962 10965 10967 10970 10972 10975 10978 10980 10981 10983 10985 10987 10988 10988 10989 10991 10993 10994 10996 10998 10999 11000 10999 10999 11000 10999 10999 11002 11002 11001 11001 11000 11000 11000 10999 10998 10998 10997 10996 10995 10993 10992 10991 10988 10986 10984 10982 10979 10977 10974 10971 10969 10967 10965 10963 10962 10961 10960 10959 10958 10958 10958 10959 10958 10956 10954 10952 10950 10949 10948 10947 10945 10944 10941 10940 10939 10938 10936 10934 10932 10931 10930 10929
10940 10944 10947 10950 10954 10957 10960 10962 10965 10968 10970 10973 10975 10977 10978 10980 10982 10982 10983 10984 10986 10989 10991 10992 10994 10995 10996 10996 10996 10997 10995 10995 10998 10999 10998 10998 10997 10997 10997 10996 10996 10995 10994 10993 10993 10991 10990 10988 10986 10984 10982 10980 10977 10975 10973 10970 10967 10965 10963 10961 10960 10959 10958 10957 10957 10956 10957 10957 10958 10956 10953 10951 10948 10946 10946 10945 10943 10942 10940 10938 10937 10936 10934 10931 10929 10927 10926 10924
10935 10938 10942 10945 10948 10951 10955 10957 10960 10963 10966 10968 10970 10971 10973 10976 10977 10977 10978 10980 10982 10985 10987 10988 10989 10991 10992 10993 10993 10994 10993 10991 10993 10995 10995 10995 10994 10994 10994 10993 10993 10992 10991 10990 10989 10989 10987 10985 10984 10982 10980 10978 10976 10974 10971 10968 10965 10963 10962 10959 10958 10957 10956 10956 10955 10955 10955 10955 10956 10954 10951 10950 10947 10944 10944 10943 10942 10940 10938 10936 10935 10933 10930 10927 10924 10923 10921 10920
10929 10932 10936 10939 10942 10946 10949 10952 10955 10958 10960 10963 10965 10966 10968 10970 10971 10971 10973 10975 10977 10980 10983 10983 10983 10986 10988 10989 10989 10990 10990 10989 10989 10991 10991 10991 10991 10991 10990 10990 10989 10989 10988 10987 10986 10985 10984 10982 10980 10979 10977 10975 10974 10972 10969 10967 10964 10961 10959 10957 10956 10955 10954 10954 10953 10952 10952 10953 10953 10952 10950 10948 10946 10943 10942 10941 10940 10937 10936 10934 10932 10930 10927 10924 10922 10920 10919 10919
10923 10926 10930 10933 10936 10940 10943 10946 10949 10952 10955 10957 10959 10961 10963 10964 10965 10966 10969 10970 10973 10976 10978 10978 10979 10982 10984 10984 10985 10986 10986 10986 10985 10986 10987 10988 10988 10988 10987 10987 10986 10985 10985 10985 10983 10982 10981 10980 10978 10976 10974 10972 10971 10970 10967 10965 10962 10960 10957 10955 10954 10953 10952 10951 10951 10950 10950 10950 10951 10950 10948 10946 10943 10941 10940 10939 10937 10935 10933 10931 10929 10928 10925 10923 10921 10919 10918 10916
10916 10920 10923 10926 10930 10934 10937 10940 10943 10946 10949 10951 10953 10955 10956 10957 10959 10962 10964 10966 10970 10973 10973 10973 10974 10977 10978 10978 10980 10981 10983 10982 10981 10981 10982 10983 10984 10984 10984 10983 10982 10981 10980 10981 10981 10978 10976 10976 10976 10973 10971 10969 10968 10967 10965 10962 10960 10958 10956 10954 10952 10950 10950 10949 10948 10948 10947 10947 10948 10947 10945 10943 10940 10938 10937 10936 10934 10932 10930 10928 10927 10926 10924 10922 10920 10918 10916 10914
10910 10913 10916 10920 10924 10928 10931 10934 10937 10940 10943 10945 10946 10947 10948 10951 10954 10959 10961 10963 10966 10968 10968 10968 10968 10970 10972 10973 10974 10976 10978 10980 10978 10976 10977 10978 10980 10980 10980 10979 10979 10978 10976 10977 10977 10974 10970 10970 10971 10970 10968 10967 10966 10964 10962 10960 10957 10956 10954 10952 10950 10948 10947 10946 10945 10944 10943 10943 10944 10944 10942 10940 10937 10935 10935 10934 10932 10930 10927 10926 10925 10924 10922 10919 10917 10915 10913 10911
10903 10906 10910 10914 10918 10921 10925 10928 10931 10934 10936 10938 10939 10940 10942 10947 10951 10956 10957 10957 10960 10962 10962 10962 10960 10962 10966 10968 10969 10970 10973 10976 10975 10972 10972 10972 10975 10976 10975 10975 10975 10974 10973 10973 10974 10973 10968 10965 10965 10965 10964 10964 10963 10960 10958 10956 10954 10953 10951 10949 10948 10946 10944 10943 10942 10941 10940 10940 10940 10941 10939 10937 10935 10933 10933 10932 10930 10928 10925 10923 10922 10921 10919 10916 10914 10912 10910 10908
10896 10899 10903 10907 10911 10914 10919 10922 10925 10928 10930 10931 10932 10933 10938 10944 10947 10950 10950 10950 10952 10955 10956 10956 10955 10956 10960 10963 10964 10965 10967 10971 10971 10969 10968 10968 10970 10972 10971 10971 10970 10969 10969 10969 10969 10970 10968 10964 10962 10961 10961 10961 10960 10958 10955 10953 10951 10950 10948 10946 10945 10943 10941 10940 10939 10937 10937 10936 10937 10938 10937 10935 10932 10931 10930 10929 10928 10925 10922 10920 10918 10917 10915 10912 10909 10907 10906 10905
10889 10893 10897 10901 10904 10908 10912 10916 10919 10921 10923 10924 10924 10927 10934 10939 10941 10943 10943 10944 10946 10948 10949 10951 10952 10952 10953 10956 10958 10959 10962 10965 10966 10965 10965 10965 10966 10968 10968 10967 10966 10964 10964 10965 10965 10965 10965 10963 10960 10957 10957 10958 10957 10955 10952 10949 10948 10946 10944 10943 10941 10939 10937 10936 10935 10934 10933 10932 10933 10933 10932 10930 10928 10926 10926 10925 10923 10921 10918 10915 10913 10912 10911 10908 10905 10902 10900 10898
10882 10887 10891 10893 10897 10902 10906 10910 10913 10915 10916 10916 10917 10922 10929 10932 10933 10936 10937 10939 10941 10942 10942 10945 10948 10948 10948 10949 10951 10953 10955 10959 10961 10960 10960 10961 10963 10964 10965 10964 10963 10960 10959 10960 10960 10960 10960 10960 10958 10954 10954 10954 10952 10951 10949 10946 10944 10943 10941 10939 10937 10936 10934 10932 10931 10930 10929 10928 10928 10928 10927 10924 10921 10919 10919 10919 10918 10916 10913 10909 10907 10906 10905 10902 10898 10895 10893 10890
10876 10880 10883 10886 10890 10896 10899 10902 10906 10908 10909 10909 10910 10916 10922 10924 10926 10930 10932 10934 10936 10936 10935 10938 10942 10942 10941 10942 10944 10947 10949 10952 10955 10954 10954 10957 10960 10960 10960 10960 10959 10956 10955 10956 10956 10955 10953 10954 10954 10952 10950 10949 10948 10946 10945 10943 10941 10940 10938 10936 10934 10932 10930 10928 10927 10926 10925 10924 10923 10922 10921 10919 10916 10914 10912 10912 10911 10909 10906 10903 10900 10898 10897 10894 10891 10887 10885 10883
10869 10873 10875 10878 10883 10888 10892 10895 10898 10901 10902 10901 10903 10909 10915 10916 10918 10924 10928 10928 10928 10929 10929 10932 10935 10935 10933 10935 10938 10941 10943 10945 10947 10947 10948 10953 10955 10955 10955 10955 10954 10951 10949 10950 10950 10949 10948 10947 10949 10950 10947 10944 10943 10941 10939 10940 10939 10936 10935 10934 10932 10930 10927 10924 10923 10922 10920 10919 10918 10917 10916 10913 10912 10910 10908 10906 10904 10902 10899 10896 10893 10891 10889 10887 10884 10881 10879 10877
10862 10866 10867 10870 10875 10880 10884 10887 10890 10893 10894 10895 10896 10901 10906 10909 10913 10920 10923 10920 10919 10922 10923 10925 10928 10927 10926 10928 10931 10935 10938 10940 10940 10940 10942 10946 10948 10949 10951 10950 10948 10945 10942 10944 10945 10944 10943 10942 10943 10946 10944 10939 10938 10936 10934 10934 10934 10932 10931 10930 10929 10927 10925 10922 10919 10917 10916 10914 10914 10913 10912 10909 10907 10906 10904 10902 10899 10897 10894 10891 10888 10886 10884 10881 10878 10876 10874 10872
10854 10857 10858 10861 10867 10872 10877 10881 10884 10888 10887 10887 10889 10893 10899 10903 10908 10915 10914 10909 10911 10916 10917 10919 10921 10921 10919 10920 10924 10929 10932 10933 10933 10934 10938 10940 10942 10944 10947 10946 10944 10941 10936 10936 10940 10939 10938 10937 10937 10939 10939 10936 10934 10932 10930 10929 10929 10927 10926 10925 10924 10923 10922 10919 10916 10913 10912 10911 10909 10908 10907 10905 10903 10901 10899 10897 10895 10892 10889 10886 10884 10882 10880 10877 10874 10872 10870 10867
10846 10849 10850 10853 10859 10866 10871 10874 10878 10880 10878 10880 10884 10888 10893 10897 10901 10907 10905 10902 10906 10910 10911 10913 10914 10914 10913 10914 10917 10922 10925 10925 10926 10929 10932 10934 10936 10939 10943 10941 10939 10938 10932 10929 10934 10935 10932 10932 10932 10932 10933 10931 10930 10929 10926 10924 10923 10922 10921 10919 10919 10919 10918 10915 10912 10910 10908 10906 10905 10904 10902 10901 10900 10898 10896 10893 10891 10887 10884 10882 10880 10878 10876 10872 10869 10867 10864 10861
10837 10840 10842 10847 10853 10859 10864 10867 10870 10871 10871 10874 10878 10881 10887 10890 10893 10899 10898 10895 10899 10903 10903 10904 10907 10908 10907 10907 10910 10915 10918 10917 10917 10922 10926 10928 10930 10934 10937 10935 10933 10933 10928 10924 10927 10929 10927 10927 10926 10926 10926 10925 10925 10926 10924 10921 10918 10917 10915 10913 10912 10913 10912 10910 10908 10906 10904 10902 10901 10900 10898 10897 10897 10896 10893 10892 10889 10885 10880 10877 10875 10872 10869 10865 10862 10858 10856 10853
10829 10833 10837 10842 10846 10851 10856 10859 10861 10862 10863 10867 10870 10873 10879 10882 10882 10888 10890 10886 10889 10893 10893 10895 10899 10901 10901 10902 10904 10908 10910 10908 10909 10915 10920 10922 10924 10927 10929 10929 10928 10928 10923 10919 10921 10922 10921 10921 10920 10920 10919 10918 10918 10920 10920 10918 10916 10912 10910 10908 10907 10907 10907 10904 10902 10900 10899 10897 10896 10895 10893 10892 10891 10889 10887 10886 10883 10879 10874 10870 10867 10865 10862 10858 10855 10852 10849 10847
10821 10827 10832 10834 10836 10840 10845 10849 10851 10853 10855 10860 10864 10866 10872 10874 10875 10879 10881 10878 10880 10885 10886 10889 10893 10895 10894 10895 10897 10901 10903 10901 10901 10906 10912 10916 10917 10919 10921 10922 10922 10922 10917 10914 10915 10915 10915 10916 10915 10913 10912 10911 10912 10912 10912 10913 10913 10910 10906 10903 10901 10902 10902 10900 10899 10896 10894 10893 10892 10890 10888 10886 10883 10880 10879 10878 10876 10872 10868 10864 10861 10859 10856 10853 10850 10848 10845 10842
10814 10820 10822 10822 10824 10830 10835 10840 10843 10845 10847 10851 10854 10857 10862 10867 10868 10869 10868 10869 10874 10879 10880 10883 10886 10886 10886 10887 10890 10894 10897 10896 10895 10897 10903 10908 10911 10913 10914 10914 10913 10913 10911 10908 10908 10907 10907 10909 10910 10908 10906 10905 10905 10904 10904 10906 10907 10907 10903 10899 10896 10895 10895 10894 10894 10892 10890 10889 10886 10884 10884 10882 10877 10873 10872 10871 10870 10867 10863 10860 10858 10855 10852 10848 10846 10844 10841 10837
10806 10810 10810 10812 10816 10820 10825 10831 10835 10836 10837 10841 10845 10847 10852 10856 10857 10858 10858 10862 10869 10872 10872 10873 10876 10877 10877 10880 10884 10887 10890 10891 10890 10890 10892 10897 10904 10907 10908 10906 10905 10905 10904 10901 10900 10901 10901 10902 10903 10903 10902 10900 10898 10898 10898 10898 10899 10900 10898 10895 10892 10889 10887 10888 10889 10888 10886 10885 10882 10880 10880 10879 10874 10870 10868 10867 10866 10863 10858 10856 10854 10852 10848 10845 10842 10840 10837 10833
10796 10799 10801 10806 10810 10811 10816 10823 10827 10828 10830 10834 10836 10837 10841 10846 10848 10851 10852 10854 10859 10864 10865 10865 10867 10870 10871 10873 10878 10881 10883 10885 10885 10885 10884 10885 10891 10897 10899 10899 10899 10899 10898 10893 10892 10894 10894 10894 10897 10897 10896 10894 10893 10892 10892 10892 10892 10892 10890 10888 10886 10883 10881 10882 10883 10882 10881 10881 10879 10877 10877 10875 10871 10867 10865 10863 10861 10858 10855 10852 10851 10849 10845 10841 10839 10835 10832 10828
10786 10789 10793 10799 10802 10803 10807 10813 10818 10820 10821 10824 10827 10828 10833 10839 10841 10844 10846 10847 10852 10857 10859 10857 10859 10863 10865 10868 10872 10875 10878 10880 10880 10879 10877 10874 10877 10883 10887 10891 10894 10894 10892 10888 10887 10887 10887 10887 10890 10891 10889 10887 10886 10886 10887 10887 10887 10886 10883 10881 10879 10877 10876 10876 10875 10874 10875 10876 10875 10873 10872 10870 10866 10863 10860 10857 10855 10853 10850 10848 10845 10843 10840 10837 10834 10830 10827 10823
10776 10780 10785 10791 10794 10796 10798 10802 10807 10810 10811 10816 10819 10821 10826 10832 10834 10836 10839 10842 10846 10848 10850 10850 10852 10857 10860 10862 10866 10871 10872 10874 10874 10872 10869 10866 10867 10871 10874 10880 10885 10886 10885 10884 10882 10881 10880 10880 10881 10883 10883 10881 10880 10880 10880 10880 10881 10880 10876 10873 10872 10871 10869 10868 10867 10866 10867 10867 10866 10866 10864 10862 10859 10856 10852 10849 10847 10844 10842 10840 10838 10836 10834 10831 10828 10825 10821 10816
10766 10771 10777 10782 10784 10786 10787 10790 10794 10798 10802 10809 10813 10815 10819 10823 10826 10828 10830 10835 10838 10838 10841 10844 10846 10851 10854 10856 10861 10865 10865 10866 10866 10865 10862 10859 10859 10862 10865 10869 10873 10874 10875 10877 10877 10875 10875 10874 10874 10875 10875 10874 10874 10875 10874 10875 10875 10871 10868 10867 10867 10865 10862 10860 10859 10858 10859 10859 10857 10856 10854 10852 10851 10848 10845 10841 10838 10836 10833 10831 10830 10829 10827 10824 10822 10818 10814 10808